TimeEDT,TemperatureF,Dew PointF,Humidity,Sea Level PressureIn,VisibilityMPH,Wind Direction,Wind SpeedMPH,Gust SpeedMPH,PrecipitationIn,Events,Conditions,WindDirDegrees,DateUTC
12:15 AM,41.0,14.0,33,30.25,10.0,Calm,Calm,-,N/A,,Clear,0,2013-04-04 04:15:00
12:35 AM,41.0,14.0,33,30.24,10.0,Calm,Calm,-,N/A,,Clear,0,2013-04-04 04:35:00
12:55 AM,39.2,14.0,36,30.23,10.0,Calm,Calm,-,N/A,,Clear,0,2013-04-04 04:55:00
1:15 AM,39.2,15.8,39,30.22,10.0,Calm,Calm,-,N/A,,Clear,0,2013-04-04 05:15:00
1:35 AM,37.4,17.6,45,30.23,10.0,Calm,Calm,-,N/A,,Clear,0,2013-04-04 05:35:00
1:55 AM,37.4,19.4,48,30.22,10.0,Calm,Calm,-,N/A,,Clear,0,2013-04-04 05:55:00
2:15 AM,39.2,19.4,45,30.22,10.0,Calm,Calm,-,N/A,,Clear,0,2013-04-04 06:15:00
2:35 AM,39.2,15.8,39,30.21,10.0,Calm,Calm,-,N/A,,Clear,0,2013-04-04 06:35:00
2:55 AM,41.0,15.8,36,30.21,10.0,Calm,Calm,-,N/A,,Clear,0,2013-04-04 06:55:00
3:15 AM,37.4,24.8,60,30.20,10.0,Calm,Calm,-,N/A,,Clear,0,2013-04-04 07:15:00
3:35 AM,39.2,23.0,52,30.19,10.0,Calm,Calm,-,N/A,,Clear,0,2013-04-04 07:35:00
3:55 AM,37.4,24.8,60,30.18,10.0,Calm,Calm,-,N/A,,Clear,0,2013-04-04 07:55:00
4:15 AM,37.4,21.2,52,30.18,10.0,Calm,Calm,-,N/A,,Clear,0,2013-04-04 08:15:00
4:35 AM,39.2,23.0,52,30.17,10.0,Calm,Calm,-,N/A,,Partly Cloudy,0,2013-04-04 08:35:00
4:55 AM,39.2,24.8,56,30.17,10.0,Calm,Calm,-,N/A,,Scattered Clouds,0,2013-04-04 08:55:00
5:15 AM,37.4,24.8,60,30.17,10.0,Calm,Calm,-,N/A,,Scattered Clouds,0,2013-04-04 09:15:00
5:35 AM,39.2,24.8,56,30.17,10.0,Calm,Calm,-,N/A,,Scattered Clouds,0,2013-04-04 09:35:00
5:55 AM,37.4,26.6,65,30.17,10.0,Calm,Calm,-,N/A,,Scattered Clouds,0,2013-04-04 09:55:00
6:15 AM,39.2,24.8,56,30.17,10.0,Calm,Calm,-,N/A,,Mostly Cloudy,0,2013-04-04 10:15:00
6:35 AM,39.2,26.6,61,30.17,10.0,Calm,Calm,-,N/A,,Mostly Cloudy,0,2013-04-04 10:35:00
6:55 AM,39.2,21.2,49,30.17,10.0,Calm,Calm,-,N/A,,Overcast,0,2013-04-04 10:55:00
7:15 AM,41.0,26.6,57,30.18,10.0,Calm,Calm,-,N/A,,Overcast,0,2013-04-04 11:15:00
7:35 AM,41.0,19.4,42,30.17,10.0,Calm,Calm,-,N/A,,Overcast,0,2013-04-04 11:35:00
7:55 AM,44.6,17.6,34,30.17,10.0,ENE,6.9,-,N/A,,Overcast,60,2013-04-04 11:55:00
8:15 AM,46.4,17.6,32,30.17,10.0,East,4.6,-,N/A,,Mostly Cloudy,80,2013-04-04 12:15:00
8:35 AM,46.4,17.6,32,30.17,10.0,ENE,4.6,-,N/A,,Mostly Cloudy,60,2013-04-04 12:35:00
8:55 AM,46.4,17.6,32,30.16,10.0,ENE,8.1,-,N/A,,Partly Cloudy,70,2013-04-04 12:55:00
9:15 AM,46.4,17.6,32,30.15,10.0,East,6.9,-,N/A,,Clear,80,2013-04-04 13:15:00
9:35 AM,48.2,15.8,27,30.15,10.0,East,8.1,-,N/A,,Partly Cloudy,80,2013-04-04 13:35:00
9:55 AM,48.2,15.8,27,30.15,10.0,East,6.9,-,N/A,,Scattered Clouds,80,2013-04-04 13:55:00
10:15 AM,46.4,15.8,29,30.15,10.0,East,6.9,-,N/A,,Partly Cloudy,90,2013-04-04 14:15:00
10:35 AM,46.4,23.0,40,30.15,10.0,East,6.9,-,N/A,Rain,Light Rain,90,2013-04-04 14:35:00
10:55 AM,44.6,30.2,57,30.15,7.0,ENE,3.5,-,N/A,Rain,Light Rain,60,2013-04-04 14:55:00
11:15 AM,41.0,32.0,70,30.16,7.0,ENE,3.5,-,N/A,Rain,Light Rain,70,2013-04-04 15:15:00
11:35 AM,41.0,32.0,70,30.18,5.0,Calm,Calm,-,0.01,Rain,Light Rain,0,2013-04-04 15:35:00
11:55 AM,39.2,32.0,75,30.18,4.0,Calm,Calm,-,0.03,Rain,Light Rain,0,2013-04-04 15:55:00
12:55 PM,39.2,35.6,87,30.16,4.0,NE,3.5,-,0.07,Rain,Light Rain,50,2013-04-04 16:55:00
1:15 PM,39.2,37.4,93,30.16,4.0,NE,4.6,-,0.01,Rain,Light Rain,50,2013-04-04 17:15:00
1:35 PM,37.4,35.6,93,30.16,4.0,East,5.8,-,0.04,Rain,Light Rain,80,2013-04-04 17:35:00
1:55 PM,37.4,35.6,93,30.15,4.0,Calm,Calm,-,0.06,Rain,Light Rain,0,2013-04-04 17:55:00
2:15 PM,37.4,35.6,93,30.14,1.5,ENE,5.8,-,0.05,Rain,Rain,60,2013-04-04 18:15:00
2:35 PM,37.4,35.6,93,30.14,3.0,Calm,Calm,-,0.08,Rain,Light Rain,0,2013-04-04 18:35:00
2:55 PM,37.4,35.6,93,30.14,3.0,Calm,Calm,-,0.10,Rain,Light Rain,0,2013-04-04 18:55:00
3:15 PM,37.4,37.4,100,30.13,3.0,East,4.6,-,0.01,Rain,Light Rain,80,2013-04-04 19:15:00
3:35 PM,37.4,37.4,100,30.13,2.5,NE,4.6,-,0.04,Rain,Light Rain,50,2013-04-04 19:35:00
3:55 PM,37.4,37.4,100,30.13,3.0,Calm,Calm,-,0.06,Rain,Light Rain,0,2013-04-04 19:55:00
4:15 PM,39.2,37.4,93,30.12,3.0,ENE,5.8,-,0.01,Rain,Light Rain,60,2013-04-04 20:15:00
4:35 PM,39.2,37.4,93,30.10,3.0,NE,6.9,-,0.02,Rain,Light Rain,50,2013-04-04 20:35:00
4:55 PM,39.2,39.2,100,30.09,4.0,ENE,6.9,-,0.03,Rain,Light Rain,60,2013-04-04 20:55:00
5:15 PM,39.2,37.4,93,30.08,3.0,ENE,5.8,-,0.01,Rain,Light Rain,60,2013-04-04 21:15:00
5:35 PM,39.2,39.2,100,30.07,4.0,ENE,6.9,-,0.03,Rain,Light Rain,60,2013-04-04 21:35:00
5:55 PM,39.2,39.2,100,30.07,7.0,East,5.8,-,0.04,Rain,Light Rain,80,2013-04-04 21:55:00
6:15 PM,39.2,39.2,100,30.07,7.0,ENE,4.6,-,N/A,,Scattered Clouds,60,2013-04-04 22:15:00
6:35 PM,39.2,39.2,100,30.06,10.0,ENE,5.8,-,N/A,,Mostly Cloudy,60,2013-04-04 22:35:00
6:55 PM,39.2,39.2,100,30.05,7.0,ENE,5.8,-,N/A,,Mostly Cloudy,60,2013-04-04 22:55:00
7:15 PM,39.2,39.2,100,30.05,7.0,ENE,3.5,-,N/A,,Mostly Cloudy,60,2013-04-04 23:15:00
7:35 PM,39.2,39.2,100,30.04,4.0,Calm,Calm,-,N/A,,Mostly Cloudy,0,2013-04-04 23:35:00
7:55 PM,39.2,39.2,100,30.03,5.0,Calm,Calm,-,N/A,,Mostly Cloudy,0,2013-04-04 23:55:00
8:15 PM,39.2,39.2,100,30.03,10.0,Calm,Calm,-,N/A,,Overcast,0,2013-04-05 00:15:00
8:35 PM,39.2,39.2,100,30.02,10.0,Calm,Calm,-,N/A,,Overcast,0,2013-04-05 00:35:00
8:55 PM,39.2,39.2,100,30.02,10.0,Calm,Calm,-,N/A,,Overcast,0,2013-04-05 00:55:00
9:15 PM,39.2,39.2,100,30.02,10.0,Calm,Calm,-,N/A,,Overcast,0,2013-04-05 01:15:00
9:35 PM,39.2,39.2,100,30.02,10.0,Calm,Calm,-,N/A,,Overcast,0,2013-04-05 01:35:00
9:55 PM,39.2,39.2,100,30.02,10.0,Calm,Calm,-,N/A,,Overcast,0,2013-04-05 01:55:00
10:15 PM,39.2,39.2,100,30.02,10.0,Calm,Calm,-,N/A,,Overcast,0,2013-04-05 02:15:00
10:35 PM,39.2,39.2,100,30.02,10.0,Calm,Calm,-,N/A,,Overcast,0,2013-04-05 02:35:00
10:55 PM,39.2,39.2,100,30.01,9.0,Calm,Calm,-,N/A,Rain,Light Rain,0,2013-04-05 02:55:00
11:15 PM,39.2,39.2,100,30.00,5.0,Calm,Calm,-,N/A,Rain,Light Rain,0,2013-04-05 03:15:00
11:35 PM,39.2,39.2,100,30.00,5.0,Calm,Calm,-,N/A,Rain,Light Rain,0,2013-04-05 03:35:00
11:55 PM,39.2,39.2,100,30.00,5.0,Calm,Calm,-,0.03,Rain,Light Rain,0,2013-04-05 03:55:00